Regional Weather Roundup
Issued by NWS

Home | Current Version | Previous Version | Graphics & Text | Print | Product List | Glossary On
Versions: 1 2 3 4 5 6 7 8 9 10 11 12 13 14 15 16 17 18 19 20 21 22 23 24 25 26 27 28 29 30 31 32 33 34 35 36 37 38 39 40 41 42 43 44 45 46 47 48 49 50
021
ASUS43 KFSD 180002
RWRSD

WEATHER ROUNDUP FOR SOUTH DAKOTA
NATIONAL WEATHER SERVICE SIOUX FALLS SD
600 PM CST SAT FEB 17 2018

NOTE: "FAIR" INDICATES FEW OR NO CLOUDS BELOW 12,000 FEET WITH NO
SIGNIFICANT WEATHER AND/OR OBSTRUCTIONS TO VISIBILITY.


SDZ001>005-009-010-012>017-180100-
NORTHWEST AND NORTH CENTRAL SOUTH DAKOTA

CITY           SKY/WX    TMP DP  RH WIND       PRES   REMARKS
BUFFALO          N/A     18  12  77 E9        29.77F WCI   7
FAITH            N/A     18  13  80 SE7       29.90F WCI   9
MOBRIDGE       PTCLDY    18   9  68 CALM      29.95F
$$

SDZ012>016-024>037-041>051-057-063-072>074-180100-
SOUTHWEST AND SOUTH CENTRAL SOUTH DAKOTA

CITY           SKY/WX    TMP DP  RH WIND       PRES   REMARKS
RAPID CTY ARPT MOCLDY    25  18  74 NE6       29.85F WCI  18
PIERRE         CLEAR     22  17  81 CALM      29.99F
CUSTER         CLEAR     28  16  60 S7        29.75F WCI  21
ELLSWORTH AFB  CLOUDY    24  17  75 E7        29.84F WCI  16
PHILIP         CLEAR     25  18  74 E10       29.93F WCI  15
PINE RIDGE     PTCLDY    36  22  56 SE6       29.84F
SPEARFISH        N/A     23  18  80 NE7       29.78F WCI  15
WINNER         FAIR      32  24  72 E6        30.00F WCI  26
$$

SDZ004>011-016>023-039-040-180100-
NORTHEAST SOUTH DAKOTA

CITY           SKY/WX    TMP DP  RH WIND       PRES   REMARKS
ABERDEEN       CLEAR     26  13  57 W10       30.01S WCI  16
WATERTOWN      CLEAR     26  15  63 W10       29.98R WCI  16
BROOKINGS      CLEAR     28  19  69 W15       30.01R WCI  16
SISSETON         N/A     25   6  44 NW9       29.99R WCI  15
$$

SDZ017-020-022-023-036>040-048>070-180100-
SOUTHEAST SOUTH DAKOTA

CITY           SKY/WX    TMP DP  RH WIND       PRES   REMARKS
SIOUX FALLS    PTCLDY    27  20  75 W9        30.05S WCI  18
HURON          CLEAR     25  19  78 W8        30.04S WCI  16
CHAMBERLAIN    CLEAR     30  24  78 CALM      30.03F
MITCHELL       CLEAR     28  21  75 SW3       30.07S
YANKTON        CLEAR     30  24  78 NW5       30.09S WCI  25
$$

ABBREVIATIONS USED IN REMARKS
   TC - TEMPERATURE IN CELSIUS
  WCI - WIND CHILL INDEX
   HX - HEAT INDEX
  VSB - VISIBILITY





USA.gov is the U.S. government's official web portal to all federal, state and local government web resources and services.